User: anonymous   Login
Location: ??
(35.5138°N, 139.6953°E)
Time: 15:51:28
(UTC+00:00)
Language:

SAR-Lupe-2 - Orbit

View from above orbital plane
View from above orbital plane
View from above satellite
View from above satellite

Ground track
Ground track

The orbit data is extracted from the following two-line orbital elements,

1 31797U 07030A   20222.86212372 0.00000703  00000-0  26139-4 0    04
2 31797  98.1216  96.2918 0001561  61.9934 297.9684 15.27553356    03
Epoch (UTC): 09 August 2020 20:41:27
Eccentricity: 0.0001561
inclination: 98.1216°
perigee height: 482 km
apogee height: 484 km
right ascension of ascending node: 96.2918°
argument of perigee: 61.9934°
revolutions per day: 15.27553356
mean anomaly at epoch: 297.9684°
orbit number at epoch: 0

The dashed part of the orbit path shows where the satellite is in the earth's shadow,  

DLR